| time (UTC) | temp C | wind direction | speed KPH | gust KPH | rain 1hr cm | rain 24hr cm | rain mn cm | humidity % | barometer mb |
| 20260505011402 | 16 | 13 | 12.9 | 22.5 | 0.00 | 0.00 | 0.00 | 37 | 1005.9 |
| 20260505010410 | 17 | 348 | 11.3 | 24.1 | 0.00 | 0.00 | 0.00 | 36 | 1005.6 |
| 20260505005351 | 18 | 7 | 9.7 | 19.3 | 0.00 | 0.00 | 0.00 | 34 | 1005.4 |
| 20260505004337 | 18 | 358 | 12.9 | 29.0 | 0.00 | 0.00 | 0.00 | 33 | 1005.2 |
| 20260505003348 | 18 | 7 | 12.9 | 22.5 | 0.00 | 0.00 | 0.00 | 33 | 1005.2 |
| 20260505002336 | 20 | 17 | 12.9 | 22.5 | 0.00 | 0.00 | 0.00 | 32 | 1004.9 |
| 20260505001324 | 20 | 26 | 14.5 | 22.5 | 0.00 | 0.00 | 0.00 | 32 | 1004.6 |
| 20260505000333 | 20 | 339 | 9.7 | 19.3 | 0.00 | 0.00 | 0.00 | 33 | 1004.4 |
| 20260504235340 | 20 | 353 | 11.3 | 24.1 | 0.00 | 0.00 | 0.00 | 31 | 1004.4 |
| 20260504234340 | 21 | 24 | 8.0 | 22.5 | 0.00 | 0.00 | 0.00 | 31 | 1004.3 |
| 20260504233325 | 21 | 349 | 8.0 | 25.7 | 0.00 | 0.00 | 0.00 | 30 | 1004.3 |
| 20260504232336 | 21 | 5 | 8.0 | 20.9 | 0.00 | 0.00 | 0.00 | 31 | 1004.0 |
| 20260504231343 | 22 | 26 | 9.7 | 19.3 | 0.00 | 0.00 | 0.00 | 29 | 1003.9 |
| 20260504230411 | 23 | 341 | 11.3 | 17.7 | 0.00 | 0.00 | 0.00 | 28 | 1003.7 |
| 20260504225353 | 23 | 12 | 8.0 | 19.3 | 0.00 | 0.00 | 0.00 | 29 | 1003.3 |
| 20260504224336 | 23 | 356 | 4.8 | 22.5 | 0.00 | 0.00 | 0.00 | 31 | 1003.2 |
| 20260504223326 | 23 | 340 | 11.3 | 27.4 | 0.00 | 0.00 | 0.00 | 29 | 1003.0 |
| 20260504222341 | 24 | 338 | 8.0 | 19.3 | 0.00 | 0.00 | 0.00 | 30 | 1002.8 |
| 20260504221347 | 24 | 1 | 14.5 | 22.5 | 0.00 | 0.00 | 0.00 | 27 | 1002.5 |
| 20260504220332 | 25 | 17 | 8.0 | 24.1 | 0.00 | 0.00 | 0.00 | 28 | 1002.3 |
| 20260504215338 | 25 | 340 | 8.0 | 19.3 | 0.00 | 0.00 | 0.00 | 28 | 1002.2 |
| 20260504214340 | 25 | 332 | 6.4 | 24.1 | 0.00 | 0.00 | 0.00 | 29 | 1002.2 |
| 20260504213350 | 25 | 15 | 8.0 | 17.7 | 0.00 | 0.00 | 0.00 | 30 | 1002.1 |
| 20260504212334 | 25 | 30 | 6.4 | 16.1 | 0.00 | 0.00 | 0.00 | 31 | 1002.1 |
| 20260504211334 | 25 | 358 | 9.7 | 14.5 | 0.00 | 0.00 | 0.00 | 31 | 1002.0 |
| 20260504210406 | 25 | 19 | 9.7 | 20.9 | 0.00 | 0.00 | 0.00 | 31 | 1002.2 |
| 20260504205330 | 25 | 22 | 6.4 | 17.7 | 0.00 | 0.00 | 0.00 | 33 | 1002.0 |
| 20260504204337 | 26 | 318 | 8.0 | 16.1 | 0.00 | 0.00 | 0.00 | 34 | 1001.9 |
| 20260504203411 | 25 | 31 | 4.8 | 17.7 | 0.00 | 0.00 | 0.00 | 33 | 1001.9 |
| 20260504202336 | 26 | 1 | 9.7 | 22.5 | 0.00 | 0.00 | 0.00 | 33 | 1001.9 |
| 20260504201325 | 26 | 22 | 8.0 | 17.7 | 0.00 | 0.00 | 0.00 | 34 | 1002.0 |
| 20260504200336 | 26 | 360 | 6.4 | 19.3 | 0.00 | 0.00 | 0.00 | 34 | 1001.8 |
| 20260504195326 | 26 | 325 | 4.8 | 19.3 | 0.00 | 0.00 | 0.00 | 33 | 1001.8 |
| 20260504194344 | 26 | 23 | 11.3 | 22.5 | 0.00 | 0.00 | 0.00 | 33 | 1001.8 |
| 20260504193330 | 26 | 3 | 9.7 | 20.9 | 0.00 | 0.00 | 0.00 | 35 | 1001.8 |
| 20260504192340 | 26 | 337 | 6.4 | 17.7 | 0.00 | 0.00 | 0.00 | 33 | 1001.7 |
| 20260504191328 | 26 | 306 | 8.0 | 19.3 | 0.00 | 0.00 | 0.00 | 31 | 1001.6 |
| 20260504190338 | 27 | 154 | 3.2 | 20.9 | 0.00 | 0.00 | 0.00 | 32 | 1001.5 |
| 20260504185330 | 27 | 22 | 4.8 | 11.3 | 0.00 | 0.00 | 0.00 | 30 | 1001.4 |
| 20260504184348 | 27 | 325 | 6.4 | 14.5 | 0.00 | 0.00 | 0.00 | 30 | 1001.4 |
| 20260504183326 | 27 | 22 | 3.2 | 17.7 | 0.00 | 0.00 | 0.00 | 29 | 1001.3 |
| 20260504182359 | 27 | 283 | 3.2 | 14.5 | 0.00 | 0.00 | 0.00 | 30 | 1001.3 |
| 20260504181325 | 27 | 45 | 3.2 | 9.7 | 0.00 | 0.00 | 0.00 | 27 | 1001.4 |
| 20260504180349 | 27 | 4 | 3.2 | 11.3 | 0.00 | 0.00 | 0.00 | 33 | 1001.6 |
| 20260504175341 | 26 | 315 | 8.0 | 16.1 | 0.00 | 0.00 | 0.00 | 29 | 1001.7 |
| 20260504174327 | 26 | 28 | 6.4 | 19.3 | 0.00 | 0.00 | 0.00 | 30 | 1001.8 |
| 20260504173356 | 26 | 243 | 3.2 | 16.1 | 0.00 | 0.00 | 0.00 | 33 | 1001.8 |
| 20260504172326 | 26 | 337 | 4.8 | 12.9 | 0.00 | 0.00 | 0.00 | 32 | 1001.9 |
| 20260504171331 | 26 | 308 | 4.8 | 11.3 | 0.00 | 0.00 | 0.00 | 32 | 1001.9 |
| 20260504170338 | 25 | 330 | 3.2 | 17.7 | 0.00 | 0.00 | 0.00 | 35 | 1002.1 |
| 20260504160359 | 23 | 140 | 3.2 | 8.0 | 0.00 | 0.00 | 0.00 | 39 | 1002.2 |
| 20260504150324 | 20 | 344 | 3.2 | 4.8 | 0.00 | 0.00 | 0.00 | 46 | 1002.3 |
| 20260504140325 | 16 | 273 | 1.6 | 8.0 | 0.00 | 0.00 | 0.00 | 53 | 1002.7 |
| 20260504130351 | 12 | 17 | 0.0 | 0.0 | 0.00 | 0.00 | 0.00 | 71 | 1002.6 |
| 20260504110333 | 9 | 141 | 0.0 | 0.0 | 0.00 | 0.00 | 0.00 | 71 | 1002.3 |
| 20260504100348 | 10 | 141 | 0.0 | 0.0 | 0.00 | 0.00 | 0.00 | 68 | 1002.4 |
| 20260504081350 | 10 | 141 | 0.0 | 0.0 | 0.00 | 0.00 | 0.00 | 66 | 1003.8 |
| 20260504080333 | 10 | 141 | 0.0 | 0.0 | 0.00 | 0.00 | 0.00 | 66 | 1003.9 |
| 20260504070350 | 10 | 141 | 0.0 | 0.0 | 0.00 | 0.00 | 0.00 | 66 | 1004.8 |
| 20260504050335 | 13 | 141 | 0.0 | 0.0 | 0.00 | 0.00 | 0.00 | 57 | 1006.2 |
| 20260504045328 | 14 | 141 | 0.0 | 0.0 | 0.00 | 0.00 | 0.00 | 55 | 1006.3 |
| 20260504044332 | 14 | 141 | 0.0 | 0.0 | 0.00 | 0.00 | 0.00 | 54 | 1006.3 |
| 20260504043359 | 14 | 141 | 0.0 | 0.0 | 0.00 | 0.00 | 0.00 | 53 | 1006.4 |
| 20260504042335 | 14 | 141 | 0.0 | 0.0 | 0.00 | 0.00 | 0.00 | 56 | 1006.6 |
| 20260504041340 | 14 | 141 | 0.0 | 0.0 | 0.00 | 0.00 | 0.00 | 56 | 1006.6 |
| 20260504040330 | 14 | 141 | 0.0 | 0.0 | 0.00 | 0.00 | 0.00 | 56 | 1006.8 |
| 20260504035340 | 15 | 141 | 0.0 | 0.0 | 0.00 | 0.00 | 0.00 | 54 | 1006.8 |
| 20260504034351 | 15 | 141 | 0.0 | 0.0 | 0.00 | 0.00 | 0.00 | 54 | 1006.9 |
| 20260504033339 | 15 | 141 | 0.0 | 0.0 | 0.00 | 0.00 | 0.00 | 54 | 1007.0 |
| 20260504032323 | 15 | 141 | 0.0 | 0.0 | 0.00 | 0.00 | 0.00 | 53 | 1007.0 |
| 20260504031358 | 15 | 141 | 0.0 | 0.0 | 0.00 | 0.00 | 0.00 | 52 | 1007.0 |
| 20260504030346 | 16 | 141 | 0.0 | 0.0 | 0.00 | 0.00 | 0.00 | 52 | 1007.1 |
| 20260504025337 | 16 | 141 | 0.0 | 0.0 | 0.00 | 0.00 | 0.00 | 51 | 1007.1 |
| 20260504024325 | 16 | 141 | 0.0 | 0.0 | 0.00 | 0.00 | 0.00 | 50 | 1007.1 |
| 20260504023359 | 16 | 141 | 0.0 | 0.0 | 0.00 | 0.00 | 0.00 | 49 | 1007.3 |
| 20260504022326 | 16 | 141 | 0.0 | 0.0 | 0.00 | 0.00 | 0.00 | 47 | 1007.3 |
| 20260504021335 | 17 | 141 | 0.0 | 0.0 | 0.00 | 0.00 | 0.00 | 46 | 1007.3 |
| 20260504020347 | 17 | 141 | 0.0 | 0.0 | 0.00 | 0.00 | 0.00 | 45 | 1007.4 |
| 20260504015341 | 18 | 141 | 0.0 | 0.0 | 0.00 | 0.00 | 0.00 | 43 | 1007.5 |
| 20260504014343 | 19 | 141 | 0.0 | 0.0 | 0.00 | 0.00 | 0.00 | 41 | 1007.5 |
| 20260504013323 | 20 | 141 | 0.0 | 0.0 | 0.00 | 0.00 | 0.00 | 40 | 1007.4 |
| 20260504012331 | 21 | 141 | 0.0 | 0.0 | 0.00 | 0.00 | 0.00 | 37 | 1007.4 |